User: anonymous   Login
Location: Unspecified
(0.0000°N, 0.0000°E)
Time: 18:21:15
(UTC+00:00)
Language:

STARLINK-30195 - Orbit

View from above orbital plane
View from above orbital plane
View from above satellite
View from above satellite

Ground track
Ground track

The orbit is defined by the following mean orbital elements,

1 57406U          26145.49708141 +.00000000 +00000-0 +52366-4 0 00003
2 57406  43.0036 181.9023 0001680 279.3110  80.7551 15.26743313    03
Epoch (UTC): 25 May 2026 11:55:47
Eccentricity: 0.0001680
inclination: 43.0036°
perigee height: 484 km
apogee height: 487 km
right ascension of ascending node: 181.9023°
argument of perigee: 279.3110°
revolutions per day: 15.26743313
mean anomaly at epoch: 80.7551°

The dashed part of the orbit path shows where the satellite is in the earth's shadow,  

DLR